Weather in Kheta

Russia / Krasnoyarsk Krai     71°33′52″N   99°39′29″E
temp.,
°C
wind,
m/s
gust,
m/s
humid.,
%
clouds,
%
prec.,
mm/h
press.,
hPa
HPBL,
m
15 may, sat
sat1501:00−7nw369394 0.2 1005227
04:00−9nw4792100 0.0 1005236
07:00−8nw568559 0.0 1006319
10:00−7nw568588 0.0 1006500
13:00−6nw6778100 0.0 10071053
16:00−6nw6779100 0.1 10081006
19:00−6nw588597 0.3 1009679
22:00−11w479413 0.0 101091
16 may, sun
sun1601:00−12w379777 0.0 1010130
04:00−12wsw379788 0.1 1011149
07:00−8w5792100 0.1 1011386
10:00−6wnw5785100 0.1 1011842
13:00−5wnw6780100 0.3 10121079
16:00−4wnw6777100 0.2 10121019
19:00−6wnw47875 0.3 1013379
22:00−11wnw229624 0.0 101326
17 may, mon
mon1701:00−15wnw229969 0.0 101332
04:00−12wnw359761 0.0 101382
07:00−8wnw4794100 0.1 1014276
10:00−5wnw5790100 0.2 1013617
13:00−4wnw7884100 0.4 1014833
16:00−4wnw6782100 0.1 1015906
19:00−5wnw589065 0.1 1016449
22:00−9wnw489651 0.0 1016113
18 may, tue
tue1801:00−11wnw369985 0.0 101765
04:00−10wnw369767 0.0 1017104
07:00−6nw489363 0.0 1018278
10:00−4nw578586 0.0 1018520
13:00−4nw678266 0.0 1018614
16:00−4nw6881100 0.0 1019541
19:00−5nw5889100 0.0 1020424
22:00−6nw4892100 0.0 1020214
19 may, wed
wed1901:00−8nw379378 0.0 1020121
04:00−9nw3794100 0.0 1020142
07:00−5nnw4794100 0.3 1021304
10:00−3nnw5791100 0.3 1021537
13:00−2nnw5689100 0.4 1022662
16:00−1nnw5689100 0.1 1023598
19:00−2nnw4592100 0.3 1024442
22:00−3nw3596100 0.1 1024176